sat.trackr.live / text

‹ back to catalog

STARLINK-34491

NORAD 64780 · 2025-147AB

PAYLOAD ACTIVE UNKNOWN

§ Identity

Operator
Country
US
Launch date
2025-07-08
Launch site
AFETR
Launch vehicle
Mass (kg)
RCS (m²)

Purposes: comms

External: N2YO · Heavens-Above · Gunter

§ Orbital elements

Epoch: 2026-05-24T18:37:39.320256Z

Period
93.85 min
Inclination
53.1584°
Eccentricity
0.0000820
Mean motion
15.34404924 rev/d
Perigee alt
462.1 km
Apogee alt
463.2 km
Semi-major
6,840.8 km
B*
7.5955e-4
RAAN
248.4294°
Arg perigee
75.4418°
Mean anomaly
284.6676°
Rev number
5,041

§ Raw data

STARLINK-344911 64780U 25147AB  26144.77614954  .00025377  00000+0  75955-3 0  99912 64780  53.1584 248.4294 0000820  75.4418 284.6676 15.34404924 50410

JSON: /api/v1/satellites/64780 · /tle

For live sub-satellite position, see the globe view (requires WebGL).

§ Visibility from observer

Set your observer location to see the next 7 days of passes ≥ 10°. The values pass through the URL so the page stays shareable.

No JS? Fill the form by hand. The geolocation button needs JavaScript.